Erie, PA

1:22 PM EST on November 18, 2017 (GMT -0500)
Erie International

Weather History for KERI - May, 2013

Change the Weather History Date:

Sunday, May 12, 2013

  Actual Average Record
Temperature  
Mean Temperature 44 °F 56 °F  
Max Temperature 50 °F 65 °F 85 °F (1985)
Min Temperature 38 °F 47 °F 32 °F (1907)
Degree Days  
Heating Degree Days 21 10  
Month to date heating degree days 57 135  
Since 1 July heating degree days 5684 5954  
Cooling Degree Days 0 1  
Month to date cooling degree days 6 7  
Year to date cooling degree days 6 14  
Moisture  
Dew Point 33 °F    
Average Humidity 66    
Maximum Humidity 85    
Minimum Humidity 46    
Precipitation  
Precipitation 0.02 in 0.12 in 1.44 in (1974)
Month to date precipitation 0.93 1.29  
Year to date precipitation 12.50 12.91  
Snow  
Snow 0.00 in 0.00 in - ()
Month to date snowfall 0.0 0.0  
Since 1 July snowfall 105.5 100.9  
Snow Depth 0.00 in    
Sea Level Pressure  
Sea Level Pressure 29.91 in    
Wind  
Wind Speed 15 mph (West)    
Max Wind Speed 25 mph    
Max Gust Speed 37 mph    
Visibility 10 miles    
Events Rain    
T = Trace of Precipitation, MM = Missing Value Source: NWS Daily Summary

Daily Weather History Graph

Daily Weather History Graph

Search for Another Location

Airport or City:

Trip Planner

Search our weather history database for the weather conditions in past years. The results will help you decide how hot, cold, wet, or windy it might be!

Date:

Astronomy

May. 12, 2013 Rise Set
Actual Time 6:02 AM EDT 8:31 PM EDT
Civil Twilight 5:31 AM EDT 9:03 PM EDT
Nautical Twilight 4:51 AM EDT 9:43 PM EDT
Astronomical Twilight 4:07 AM EDT 10:27 PM EDT
Moon 7:56 AM EDT (5/12) 10:58 PM EDT (5/12)
Length of Visible Light 15h 32m
Length of Day
14h 28m
Waxing Crescent, 6% of the Moon is Illuminated
May 12
Waxing Crescent
May 18
First Quarter
May 25
Full
May 31
Last Quarter
Jun 8
New

Hourly Weather History & Observations

Time (EDT) Temp. Windchill Dew Point Humidity Pressure Visibility Wind Dir Wind Speed Gust Speed Precip Events Conditions
12:07 AM 44.6 °F 38.4 °F 42.8 °F 93% 29.81 in 10.0 mi WNW 12.7 mph 28.8 mph 0.01 in Rain Light Rain
12:15 AM 44.6 °F 38.1 °F 41.0 °F 87% 29.82 in 10.0 mi WNW 13.8 mph 23.0 mph 0.01 in Rain Light Rain
12:51 AM 44.1 °F 37.4 °F 39.9 °F 85% 29.86 in 10.0 mi West 13.8 mph 23.0 mph 0.01 in   Overcast
1:51 AM 42.1 °F 34.2 °F 33.1 °F 70% 29.88 in 10.0 mi WNW 16.1 mph 23.0 mph N/A   Overcast
2:12 AM 42.8 °F 36.2 °F 33.8 °F 70% 29.87 in 10.0 mi WNW 12.7 mph 21.9 mph N/A   Mostly Cloudy
2:51 AM 42.1 °F 34.9 °F 32.0 °F 67% 29.88 in 10.0 mi West 13.8 mph 21.9 mph N/A   Mostly Cloudy
3:14 AM 42.8 °F 36.6 °F 32.0 °F 66% 29.87 in 10.0 mi West 11.5 mph - N/A   Mostly Cloudy
3:42 AM 41.0 °F 34.3 °F 32.0 °F 70% 29.86 in 10.0 mi West 11.5 mph 21.9 mph N/A   Mostly Cloudy
3:51 AM 41.0 °F 34.7 °F 32.0 °F 70% 29.88 in 10.0 mi West 10.4 mph - N/A   Mostly Cloudy
4:32 AM 41.0 °F 34.7 °F 32.0 °F 70% 29.86 in 10.0 mi West 10.4 mph - N/A   Scattered Clouds
4:39 AM 41.0 °F 34.7 °F 32.0 °F 70% 29.86 in 10.0 mi West 10.4 mph - N/A   Mostly Cloudy
4:51 AM 41.0 °F 35.2 °F 32.0 °F 70% 29.87 in 10.0 mi WSW 9.2 mph - N/A   Mostly Cloudy
5:09 AM 41.0 °F 35.8 °F 30.2 °F 65% 29.85 in 10.0 mi WSW 8.1 mph - N/A   Scattered Clouds
5:51 AM 37.9 °F 32.7 °F 33.1 °F 83% 29.86 in 10.0 mi South 6.9 mph - N/A   Scattered Clouds
6:51 AM 39.0 °F 32.8 °F 33.1 °F 79% 29.86 in 10.0 mi SSW 9.2 mph - N/A   Clear
7:51 AM 42.1 °F 35.2 °F 34.0 °F 73% 29.86 in 10.0 mi SW 12.7 mph - N/A   Clear
8:51 AM 44.1 °F 35.9 °F 30.9 °F 60% 29.88 in 10.0 mi West 19.6 mph 25.3 mph N/A   Overcast
9:51 AM 45.0 °F 37.9 °F 32.0 °F 60% 29.88 in 10.0 mi West 16.1 mph 28.8 mph N/A   Scattered Clouds
10:51 AM 45.0 °F 38.5 °F 32.0 °F 60% 29.89 in 10.0 mi West 13.8 mph 24.2 mph N/A   Mostly Cloudy
11:51 AM 46.0 °F 39.0 °F 32.0 °F 58% 29.91 in 10.0 mi WSW 17.3 mph 29.9 mph N/A   Mostly Cloudy
12:51 PM 44.1 °F 37.1 °F 30.9 °F 60% 29.91 in 10.0 mi WSW 15.0 mph 26.5 mph N/A   Overcast
1:51 PM 46.9 °F - 30.9 °F 54% 29.92 in 10.0 mi West 18.4 mph 32.2 mph N/A   Mostly Cloudy
2:51 PM 48.0 °F - 30.0 °F 50% 29.92 in 10.0 mi West 13.8 mph 31.1 mph N/A   Scattered Clouds
3:51 PM 46.9 °F - 28.9 °F 50% 29.93 in 10.0 mi West 20.7 mph 35.7 mph N/A   Mostly Cloudy
4:51 PM 48.0 °F - 28.9 °F 48% 29.94 in 10.0 mi WSW 21.9 mph 32.2 mph N/A   Mostly Cloudy
5:51 PM 46.9 °F - 30.0 °F 52% 29.95 in 10.0 mi WSW 19.6 mph 36.8 mph N/A   Overcast
6:51 PM 45.0 °F 37.6 °F 32.0 °F 60% 29.96 in 10.0 mi WNW 17.3 mph 31.1 mph N/A   Overcast
7:51 PM 43.0 °F 34.5 °F 34.0 °F 71% 29.98 in 9.0 mi West 19.6 mph 28.8 mph 0.01 in Rain Light Rain
7:59 PM 42.8 °F 36.2 °F 35.6 °F 76% 29.96 in 7.0 mi West 12.7 mph 26.5 mph 0.01 in Rain Light Rain
8:08 PM 42.8 °F 37.5 °F 35.6 °F 76% 29.96 in 10.0 mi WSW 9.2 mph - 0.01 in   Overcast
8:51 PM 43.0 °F 35.4 °F 35.1 °F 74% 29.99 in 10.0 mi NW 16.1 mph 27.6 mph 0.01 in   Overcast
9:51 PM 42.1 °F 33.9 °F 28.0 °F 58% 30.03 in 10.0 mi WNW 17.3 mph 28.8 mph N/A   Overcast
10:51 PM 42.1 °F 35.2 °F 27.0 °F 55% 30.05 in 10.0 mi WNW 12.7 mph 23.0 mph N/A   Overcast
11:51 PM 41.0 °F 32.8 °F 26.1 °F 55% 30.05 in 10.0 mi WNW 16.1 mph 24.2 mph N/A   Overcast